Miscellaneous Local Product
Issued by NWS Hastings, NE

Home | Current Version | Previous Version | Graphics & Text | Print | Product List | Glossary On
Versions: 1 2 3 4 5 6 7 8 9 10 11 12 13 14 15 16 17 18 19 20 21 22 23 24 25 26 27 28 29 30 31 32 33 34 35 36 37 38 39 40 41 42 43 44 45 46 47 48 49 50
251
AXUS43 KGID 171102
MISGRI

GID CWA HOURLY WEATHER ROUNDUP
NATIONAL WEATHER SERVICE HASTINGS NE
500 AM CST FRI NOV 17 2017

NOTE: "FAIR" INDICATES FEW OR NO CLOUDS BELOW 12,000 FEET WITH NO
SIGNIFICANT WEATHER AND/OR OBSTRUCTIONS TO VISIBILITY.

...SOUTH CENTRAL NEBRASKA...

CITY           SKY/WX    TMP DP  RH WIND       PRES   REMARKS
GRAND ISLAND   CLOUDY    52  50  93 S15       29.62F
KEARNEY        NOT AVBL
HASTINGS       CLOUDY    52  48  86 S12G22    29.62F
ORD            CLOUDY    37  35  92 E3        29.59F FOG
YORK           CLOUDY    54  54 100 S12       29.64F
AURORA         CLOUDY    53  50  90 S14       29.62F
LEXINGTON      CLOUDY    42  40  91 S3        29.61S
HOLDREGE       CLOUDY    46  46 100 S9        29.61F FOG
HEBRON         CLOUDY    58  53  83 S9        29.66S

...NEBRASKA PANHANDLE...

CITY           SKY/WX    TMP DP  RH WIND       PRES   REMARKS
CHADRON        CLOUDY    37  27  67 CALM      29.65F
ALLIANCE       PTCLDY    40  30  67 NE15      29.62R WCI  32
SCOTTSBLUFF    CLOUDY    37  28  70 E3        29.59F
SIDNEY         CLOUDY    35  27  72 NW7       29.63S WCI  29

...WESTERN AND NORTH CENTRAL NEBRASKA...

CITY           SKY/WX    TMP DP  RH WIND       PRES   REMARKS
VALENTINE      PTCLDY    42  29  59 N13G18    29.64R
AINSWORTH      PTCLDY    43  32  64 NW15G22   29.62R
ONEILL         CLOUDY    45  41  86 SW8       29.59R
BROKEN BOW     CLOUDY    37  34  89 CALM      29.59F
NORTH PLATTE   CLOUDY    34  33  96 NW3       29.60F
MCCOOK         PTCLDY    38  35  89 W5        29.60F WCI  34

...EASTERN NEBRASKA...

CITY           SKY/WX    TMP DP  RH WIND       PRES   REMARKS
NORFOLK        CLOUDY    48  44  86 S13G20    29.60F
SO SIOUX CITY  CLOUDY    44  33  65 SE13      29.65F
TEKAMAH        CLOUDY    46  34  62 SE15      29.66F
COLUMBUS       CLOUDY    50  44  80 S9        29.64F
ALBION         CLOUDY    48  45  88 S8        29.61F
OMAHA EPPLEY   CLOUDY    48  36  63 S13       29.71F
OFFUTT AFB     CLOUDY    50  39  66 SE15      29.71F
MILLARD        CLOUDY    51  40  67 SE9       29.70F
LINCOLN        CLOUDY    54  45  71 S12       29.68F
NEBRASKA CITY  CLOUDY    51  42  72 S20       29.71F
BEATRICE       CLOUDY    55  49  81 S9        29.67S
FALLS CITY     CLOUDY    54  46  74 S14       29.74F

...NORTHERN KANSAS...

CITY           SKY/WX    TMP DP  RH WIND       PRES   REMARKS
GOODLAND       CLOUDY    54  32  43 SW13      29.64F
HILL CITY      CLOUDY    47  44  90 SW6       29.63F
NORTON         SUNNY     39  36  87 CALM      29.59F
PHILLIPSBURG   FOG       41  41 100 SE3       29.63F VSB 1/4
SMITH CENTER   CLOUDY    50  48  93 S9        29.63F
HAYS           CLOUDY    50  48  93 S12       29.65F
RUSSELL        CLOUDY    54  53  97 S22       29.62F
CONCORDIA      CLOUDY    59  55  87 S18G24    29.67S
SALINA         CLOUDY    62  57  83 S13G25    29.70R
TOPEKA         CLOUDY    57  52  83 SE14      29.77F



USA.gov is the U.S. government's official web portal to all federal, state and local government web resources and services.